Banff, Alberta

10:46 PM MST on January 16, 2018 (GMT -0700)
Banff

Weather History for CWZG - October, 2012

Change the Weather History Date:

Wednesday, October 3, 2012

  Actual Average Record
Temperature  
Mean Temperature 32 °F -  
Max Temperature 37 °F - - ()
Min Temperature 25 °F - - ()
Degree Days  
Heating Degree Days 34    
Moisture  
Dew Point 26 °F    
Average Humidity 80    
Maximum Humidity 95    
Minimum Humidity 56    
Precipitation  
Precipitation 0.00 in - - ()
Sea Level Pressure  
Sea Level Pressure 30.54 in    
Wind  
Wind Speed 1 mph ()    
Max Wind Speed 4 mph    
Max Gust Speed -    
T = Trace of Precipitation, MM = Missing Value Source: Averaged Metar Reports

Daily Weather History Graph

Daily Weather History Graph

Search for Another Location

Airport or City:

Trip Planner

Search our weather history database for the weather conditions in past years. The results will help you decide how hot, cold, wet, or windy it might be!

Date:

Astronomy

Oct. 03, 2012 Rise Set
Actual Time 7:46 AM MDT 7:14 PM MDT
Civil Twilight 7:13 AM MDT 7:47 PM MDT
Nautical Twilight 6:35 AM MDT 8:25 PM MDT
Astronomical Twilight 5:56 AM MDT 9:04 PM MDT
Moon 8:40 PM MDT (10/3) 11:42 AM MDT (10/3)
Length of Visible Light 12h 33m
Length of Day
11h 27m
Waning Gibbous, 88% of the Moon is Illuminated
Oct 3
Waning Gibbous
Oct 8
Last Quarter
Oct 15
New
Oct 21
First Quarter
Oct 29
Full

Hourly Weather History & Observations

Time (MDT) Temp. Windchill Dew Point Humidity Pressure Visibility Wind Dir Wind Speed Gust Speed Precip Events Conditions
12:00 AM 31.6 °F - 28.8 °F 89% 30.37 in - SSE 1.2 mph - N/A   Unknown
1:00 AM 31.5 °F - 27.9 °F 87% 30.38 in - ENE 1.2 mph - N/A   Unknown
2:00 AM 30.9 °F - 28.4 °F 90% 30.41 in - ESE 2.3 mph - N/A   Unknown
3:00 AM 30.7 °F - 28.2 °F 90% 30.47 in - NNW 1.2 mph - N/A   Unknown
4:00 AM 30.6 °F - 28.8 °F 93% 30.49 in - Calm Calm - N/A   Unknown
5:00 AM 30.0 °F - 28.6 °F 94% 30.50 in - NE 1.2 mph - N/A   Unknown
6:00 AM 28.9 °F - 27.7 °F 95% 30.52 in - NNE 1.2 mph - N/A   Unknown
7:00 AM 29.5 °F - 28.2 °F 95% 30.54 in - Calm Calm - N/A   Unknown
8:00 AM 29.1 °F - 27.9 °F 95% 30.57 in - Calm Calm - N/A   Unknown
9:00 AM 28.8 °F - 26.8 °F 92% 30.59 in - North 2.3 mph - N/A   Unknown
10:00 AM 30.7 °F - 25.9 °F 82% 30.59 in - North 2.3 mph - N/A   Unknown
11:00 AM 31.6 °F 28.3 °F 25.7 °F 79% 30.60 in - NE 3.5 mph - N/A   Unknown
12:00 PM 33.1 °F 30.0 °F 25.2 °F 73% 30.60 in - NE 3.5 mph - N/A   Unknown
1:00 PM 35.4 °F 32.6 °F 25.7 °F 68% 30.59 in - ENE 3.5 mph - N/A   Unknown
2:00 PM 35.1 °F - 22.3 °F 60% 30.59 in - East 2.3 mph - N/A   Unknown
3:00 PM 36.3 °F - 22.8 °F 58% 30.57 in - East 2.3 mph - N/A   Unknown
4:00 PM 36.5 °F 33.9 °F 22.1 °F 56% 30.56 in - East 3.5 mph - N/A   Unknown
5:00 PM 37.0 °F - 22.8 °F 56% 30.56 in - ENE 2.3 mph - N/A   Unknown
6:00 PM 36.3 °F 33.7 °F 21.7 °F 56% 30.56 in - NE 3.5 mph - N/A   Unknown
7:00 PM 34.3 °F - 24.1 °F 66% 30.56 in - ESE 1.2 mph - N/A   Unknown
8:00 PM 29.7 °F - 24.6 °F 81% 30.58 in - NNE 1.2 mph - N/A   Unknown
9:00 PM 28.4 °F - 25.0 °F 87% 30.57 in - ENE 1.2 mph - N/A   Unknown
10:00 PM 26.2 °F - 23.7 °F 90% 30.57 in - Calm Calm - N/A   Unknown
11:00 PM 25.5 °F - 23.2 °F 91% 30.56 in - ENE 1.2 mph - N/A   Unknown